Location: Krakow
(50.0830°N, 19.9170°E)
Time: 23:11:30
(UTC+01:00)

Transit 2A Rocket - Pass Details

Date: 18 December 2023
Orbit: 590 x 905 km, 66.7° (Epoch: 03 March)

Event Time Altitude Azimuth Distance (km) Brightness Sun altitude
Rises 03:44:53 0° 307° (NW) 2,866 - -35.5°
Reaches altitude 10° 03:48:08 10° 281° (WNW) 1,994 - -34.9°
Maximum altitude 03:50:19 14° 252° (WSW) 1,796 - -34.6°
Drops below altitude 10° 03:52:34 10° 222° (SW) 2,056 - -34.2°
Sets 03:56:01 0° 197° (SSW) 3,030 - -33.7°
